Location: Central Coast NSW, Australia
(33.2407°S, 151.4316°E)
Time: 16:14:58
(UTC+10:00)

N. Korean satellite - Pass Details

Date: 29 March 2019
Orbit: 457 x 508 km, 97.2° (Epoch: 24 April)

Event Time Altitude Azimuth Distance (km) Brightness Sun altitude
Rises 05:13:42 0° 59° (ENE) 2,614 11.0 -23.6°
Reaches altitude 10° 05:17:13 10° 95° (E) 1,743 10.5 -22.9°
Maximum altitude 05:18:18 11° 112° (ESE) 1,680 10.3 -22.7°
Drops below altitude 10° 05:19:24 10° 129° (SE) 1,750 10.2 -22.5°
Sets 05:22:57 0° 164° (SSE) 2,645 10.7 -21.8°
